OpenBCM V1.07b12 (Linux)

Packet Radio Mailbox

DB0FHN

[JN59NK Nuernberg]

 Login: GUEST





  
I6KZR  > KEPLER   12.02.03 22:13l 1460 Lines 39193 Bytes #999 (0) @ WW
BID : 23359_IK6WID
Read: DB0FHN GUEST
Subj: Old Istantrak Keplerians #043
Path: DB0FHN<DB0RGB<OK0PPL<RZ6HXA<SP7MGD<IK6PYS<I6ZLO<IK6WID
Sent: 030212/1956Z @:IK6WID.#AP.IMAR.ITA.EU #:23359 [MONTE URANO]  FBB7.00i
From: I6KZR@IK6WID.#AP.IMAR.ITA.EU
To  : KEPLER@WW


Satellite: OSCAR 7
Catalog number: 07530
Epoch time:      103042.66870970
Element set:     171 
Inclination:      101.7634 deg
RA of node:        90.5201 deg
Eccentricity:    0.0012308
Arg of perigee:    91.3936 deg
Mean anomaly:     268.8542 deg
Mean motion:   12.53564322 rev/day
Decay rate:   -2.9000E-007 rev/day^2
Epoch rev:           29232
Checksum:              280

Satellite: GOES 2
Catalog number: 10061
Epoch time:      103041.64344854
Element set:     84 
Inclination:       14.1321 deg
RA of node:        13.4869 deg
Eccentricity:    0.0012973
Arg of perigee:   199.7553 deg
Mean anomaly:     160.2330 deg
Mean motion:    0.99401033 rev/day
Decay rate:   -1.4600E-006 rev/day^2
Epoch rev:            3875
Checksum:              265

Satellite: GOES 3
Catalog number: 10953
Epoch time:      103041.95619567
Element set:     920 
Inclination:       13.4062 deg
RA of node:        17.2881 deg
Eccentricity:    0.0005282
Arg of perigee:   341.4098 deg
Mean anomaly:      18.6073 deg
Mean motion:    1.00279001 rev/day
Decay rate:   -8.9000E-007 rev/day^2
Epoch rev:            4342
Checksum:              271

Satellite: GOES 6
Catalog number: 14050
Epoch time:      103040.07554305
Element set:     421 
Inclination:       10.3882 deg
RA of node:        35.5600 deg
Eccentricity:    0.0003554
Arg of perigee:   347.4720 deg
Mean anomaly:      12.5737 deg
Mean motion:    1.00299948 rev/day
Decay rate:    5.1000E-007 rev/day^2
Epoch rev:           13054
Checksum:              246

Satellite: OSCAR 10
Catalog number: 14129
Epoch time:      103041.63642645
Element set:     916 
Inclination:       25.9157 deg
RA of node:       165.6251 deg
Eccentricity:    0.6028355
Arg of perigee:   326.7167 deg
Mean anomaly:       6.8087 deg
Mean motion:    2.05866882 rev/day
Decay rate:    1.1700E-006 rev/day^2
Epoch rev:           11990
Checksum:              308

Satellite: OSCAR 11 (UoSA
Catalog number: 14781
Epoch time:      103042.97663186
Element set:     71 
Inclination:       98.1167 deg
RA of node:        16.8493 deg
Eccentricity:    0.0008312
Arg of perigee:   229.3011 deg
Mean anomaly:     130.7478 deg
Mean motion:   14.77975302 rev/day
Decay rate:    1.6640E-005 rev/day^2
Epoch rev:            1526
Checksum:              304

Satellite: NOAA 10
Catalog number: 16969
Epoch time:      103043.02778943
Element set:     658 
Inclination:       98.7289 deg
RA of node:        37.1513 deg
Eccentricity:    0.0013306
Arg of perigee:   104.8050 deg
Mean anomaly:     255.4604 deg
Mean motion:   14.27061202 rev/day
Decay rate:    1.7900E-006 rev/day^2
Epoch rev:           85297
Checksum:              308

Satellite: GOES 7
Catalog number: 17561
Epoch time:      103042.22726208
Element set:     848 
Inclination:        7.5879 deg
RA of node:        55.5875 deg
Eccentricity:    0.0005361
Arg of perigee:   259.3025 deg
Mean anomaly:      89.5646 deg
Mean motion:    1.00251325 rev/day
Decay rate:    5.6999E-007 rev/day^2
Epoch rev:            4166
Checksum:              326

Satellite: COSMOS 1861
Catalog number: 18129
Epoch time:      103042.95060966
Element set:     218 
Inclination:       82.9262 deg
RA of node:       151.4520 deg
Eccentricity:    0.0010136
Arg of perigee:   244.8849 deg
Mean anomaly:     115.1251 deg
Mean motion:   13.72700401 rev/day
Decay rate:    8.4999E-007 rev/day^2
Epoch rev:           78360
Checksum:              314

Satellite: EUTELSAT 1-F4 
Catalog number: 18351
Epoch time:      103041.85078528
Element set:     39 
Inclination:        7.1816 deg
RA of node:        58.7102 deg
Eccentricity:    0.0006861
Arg of perigee:   199.9005 deg
Mean anomaly:     160.1802 deg
Mean motion:    0.98690122 rev/day
Decay rate:   -2.1500E-006 rev/day^2
Epoch rev:            4260
Checksum:              389

Satellite: NOAA 11
Catalog number: 19531
Epoch time:      103043.00420462
Element set:     496 
Inclination:       98.9019 deg
RA of node:       124.4080 deg
Eccentricity:    0.0011173
Arg of perigee:   218.5785 deg
Mean anomaly:     141.4591 deg
Mean motion:   14.14534408 rev/day
Decay rate:    1.8900E-006 rev/day^2
Epoch rev:           74187
Checksum:              290

Satellite: ASTRA 1A
Catalog number: 19688
Epoch time:      103043.01219909
Element set:     573 
Inclination:        1.3633 deg
RA of node:        94.7853 deg
Eccentricity:    0.0004343
Arg of perigee:   214.7365 deg
Mean anomaly:     201.7041 deg
Mean motion:    1.00273826 rev/day
Decay rate:    4.3000E-007 rev/day^2
Epoch rev:            3213
Checksum:              259

Satellite: OSCAR 14 (UOSA
Catalog number: 20437
Epoch time:      103042.71746116
Element set:     162 
Inclination:       98.2738 deg
RA of node:        86.6578 deg
Eccentricity:    0.0009880
Arg of perigee:   220.4762 deg
Mean anomaly:     139.5685 deg
Mean motion:   14.31235469 rev/day
Decay rate:    1.4400E-006 rev/day^2
Epoch rev:           68151
Checksum:              434

Satellite: OSCAR 15 (UOSA
Catalog number: 20438
Epoch time:      103042.59214888
Element set:     775 
Inclination:       98.2483 deg
RA of node:        75.6901 deg
Eccentricity:    0.0008998
Arg of perigee:   233.1523 deg
Mean anomaly:     126.8831 deg
Mean motion:   14.30195937 rev/day
Decay rate:    1.0600E-006 rev/day^2
Epoch rev:           68116
Checksum:              437

Satellite: OSCAR 16 (PACS
Catalog number: 20439
Epoch time:      103042.66359109
Element set:     850 
Inclination:       98.3189 deg
RA of node:        98.2503 deg
Eccentricity:    0.0010232
Arg of perigee:   227.1556 deg
Mean anomaly:     132.8774 deg
Mean motion:   14.31469107 rev/day
Decay rate:    1.7099E-006 rev/day^2
Epoch rev:           68154
Checksum:              319

Satellite: OSCAR 17 (DOVE
Catalog number: 20440
Epoch time:      103042.72373507
Element set:     735 
Inclination:       98.3381 deg
RA of node:       102.1852 deg
Eccentricity:    0.0010168
Arg of perigee:   226.6187 deg
Mean anomaly:     133.4155 deg
Mean motion:   14.31746773 rev/day
Decay rate:    2.0099E-006 rev/day^2
Epoch rev:           68162
Checksum:              297

Satellite: OSCAR 18 (WEBE
Catalog number: 20441
Epoch time:      103043.55341348
Element set:     10 
Inclination:       98.3334 deg
RA of node:       102.1958 deg
Eccentricity:    0.0010988
Arg of perigee:   223.3930 deg
Mean anomaly:     136.6391 deg
Mean motion:   14.31551298 rev/day
Decay rate:    1.7700E-006 rev/day^2
Epoch rev:           68172
Checksum:              289

Satellite: OSCAR 19 (LUSA
Catalog number: 20442
Epoch time:      103043.18308877
Element set:     961 
Inclination:       98.3481 deg
RA of node:       104.8534 deg
Eccentricity:    0.0011089
Arg of perigee:   225.9556 deg
Mean anomaly:     134.0715 deg
Mean motion:   14.31714097 rev/day
Decay rate:    1.9599E-006 rev/day^2
Epoch rev:           68172
Checksum:              330

Satellite: JAS 1B (FUJI 2
Catalog number: 20480
Epoch time:      103042.91947156
Element set:     480 
Inclination:       99.0462 deg
RA of node:         6.9124 deg
Eccentricity:    0.0540659
Arg of perigee:    18.9361 deg
Mean anomaly:     343.1022 deg
Mean motion:   12.83330011 rev/day
Decay rate:    2.9000E-007 rev/day^2
Epoch rev:           60966
Checksum:              278

Satellite: HST
Catalog number: 20580
Epoch time:      103043.29294031
Element set:     324 
Inclination:       28.4682 deg
RA of node:        78.8453 deg
Eccentricity:    0.0004391
Arg of perigee:   199.7270 deg
Mean anomaly:     247.3060 deg
Mean motion:   14.97793282 rev/day
Decay rate:    2.2860E-005 rev/day^2
Epoch rev:           50169
Checksum:              308

Satellite: EUTELSAT 2-F1
Catalog number: 20777
Epoch time:      103042.63184869
Element set:     28 
Inclination:        3.4849 deg
RA of node:        84.6308 deg
Eccentricity:    0.0000767
Arg of perigee:   316.5613 deg
Mean anomaly:      43.5275 deg
Mean motion:    1.00267887 rev/day
Decay rate:    9.9999E-009 rev/day^2
Epoch rev:            2603
Checksum:              334

Satellite: FENGYUN 1B
Catalog number: 20788
Epoch time:      103043.53958225
Element set:     880 
Inclination:       99.0260 deg
RA of node:        25.7785 deg
Eccentricity:    0.0014976
Arg of perigee:   246.6638 deg
Mean anomaly:     113.2951 deg
Mean motion:   14.02133618 rev/day
Decay rate:   -1.6599E-006 rev/day^2
Epoch rev:           63669
Checksum:              339

Satellite: EUTELSAT 2-F2
Catalog number: 21056
Epoch time:      103042.94793404
Element set:     618 
Inclination:        2.7155 deg
RA of node:        88.0008 deg
Eccentricity:    0.0003126
Arg of perigee:   262.0595 deg
Mean anomaly:     181.2339 deg
Mean motion:    1.00276341 rev/day
Decay rate:    1.2799E-006 rev/day^2
Epoch rev:            3181
Checksum:              275

Satellite: INFORMATOR 1
Catalog number: 21087
Epoch time:      103042.86356464
Element set:     629 
Inclination:       82.9433 deg
RA of node:       322.3715 deg
Eccentricity:    0.0033815
Arg of perigee:   270.4523 deg
Mean anomaly:      89.2757 deg
Mean motion:   13.74925705 rev/day
Decay rate:    7.6999E-007 rev/day^2
Epoch rev:           60396
Checksum:              342

Satellite: COSMOS 2123
Catalog number: 21089
Epoch time:      103042.91589877
Element set:     506 
Inclination:       82.9230 deg
RA of node:       186.3102 deg
Eccentricity:    0.0028217
Arg of perigee:   307.3175 deg
Mean anomaly:      52.5409 deg
Mean motion:   13.74403404 rev/day
Decay rate:    6.6000E-007 rev/day^2
Epoch rev:           60287
Checksum:              396

